Theta_e
338 337 344 346 351 355 354 354 354 354 355 354 354 354 353 353 353 352 352 351 351 350 349 348 347 348 348 347 347 347 350 351 350 349 350 351 351 351 351 350 348 349 350 349 349 349 349 349 348 348 349 349 350 350 350 349 350 350 349 349 348 347 347 348 348 348 348 349 350 350 349 350 349 350 352 352 351 352 350 350 350 350 352 350 350
337 337 343 348 350 354 354 354 354 354 354 354 354 354 354 353 353 352 351 350 350 350 349 348 347 347 347 348 347 347 347 349 349 349 350 351 350 351 350 351 349 348 348 349 349 349 348 348 348 347 347 348 347 347 347 348 348 348 348 347 346 344 344 345 346 347 347 346 347 347 348 349 350 349 350 351 351 351 349 349 349 350 350 349 349
336 337 343 347 349 352 353 354 354 354 354 354 354 353 353 353 353 352 351 350 350 349 348 348 347 347 347 347 347 347 347 348 348 348 349 349 350 350 350 350 349 348 348 348 348 347 347 345 344 344 344 343 343 343 343 344 344 345 345 344 343 342 342 342 344 346 346 347 345 345 344 348 348 348 348 350 351 350 348 348 348 349 350 350 349
336 338 343 346 346 349 352 354 354 354 354 354 354 354 353 353 352 351 351 350 350 348 348 347 347 347 347 347 347 347 347 347 347 348 349 349 349 350 350 349 348 348 348 348 347 345 345 344 343 342 341 340 340 340 340 340 341 342 342 342 341 341 342 342 342 344 346 346 344 344 347 348 347 348 348 348 349 349 348 347 347 347 348 350 350
336 339 343 347 350 348 351 353 354 355 355 355 354 354 353 353 352 351 350 350 349 348 348 347 347 347 348 347 348 347 347 347 347 348 348 349 349 349 349 349 348 347 347 347 346 345 344 344 343 342 341 339 338 338 337 337 338 339 340 340 340 341 343 342 341 342 344 344 343 344 347 347 348 346 347 348 348 347 347 347 347 348 347 348 349
336 340 344 346 349 351 348 352 355 355 355 355 355 354 353 353 352 351 350 350 349 348 347 346 346 347 347 347 348 347 347 347 347 348 348 348 349 348 349 348 348 347 346 346 346 346 345 345 343 342 340 338 337 336 335 335 336 337 338 339 339 341 343 342 342 342 342 341 341 347 347 348 346 346 347 347 347 346 346 346 346 347 347 348 348
337 341 344 346 349 349 346 351 355 355 354 355 354 354 353 353 352 351 350 350 349 348 347 345 347 345 347 347 348 347 347 347 347 347 348 348 348 348 348 348 348 347 347 347 346 346 345 344 343 341 339 337 336 334 333 333 333 335 337 338 340 342 342 342 340 340 339 342 346 345 345 347 346 346 346 347 346 346 345 346 346 346 346 346 346
338 341 344 346 348 347 344 351 353 355 354 355 354 354 353 353 352 351 350 350 349 348 346 347 347 346 347 347 348 348 347 347 347 347 347 347 347 348 347 348 347 347 346 345 346 346 344 343 342 341 340 336 334 333 332 331 332 334 336 337 340 342 342 342 340 340 338 342 343 345 345 346 346 346 346 346 345 344 345 345 345 345 345 344 343
338 340 343 346 348 343 344 347 353 354 354 354 354 354 353 353 352 351 350 349 349 348 346 347 348 348 348 348 348 348 347 347 347 346 346 347 347 347 347 347 346 346 346 346 345 344 343 342 341 340 339 336 333 331 331 331 332 333 335 338 340 341 341 340 338 338 340 341 342 344 346 345 345 345 344 345 345 345 345 343 343 344 344 343 342
337 340 343 345 348 341 344 346 353 354 354 354 354 353 352 352 352 351 350 349 349 348 347 348 349 349 349 347 348 347 347 348 346 346 346 346 347 347 347 346 346 345 344 344 344 343 342 341 339 339 338 335 332 330 330 330 331 333 335 338 340 340 339 338 338 338 342 342 343 344 345 344 345 345 344 345 344 344 342 342 343 343 343 342 342
336 339 342 344 346 340 344 349 351 351 353 354 353 353 352 352 352 351 350 349 349 347 348 348 348 348 348 348 348 347 348 347 346 346 345 346 346 347 347 346 345 344 344 343 342 341 340 339 339 338 336 333 330 328 329 329 331 333 334 338 338 338 338 338 338 341 342 343 343 344 343 341 345 344 343 343 343 343 341 342 342 342 341 342 342
335 336 340 343 339 339 343 347 349 352 352 353 353 353 353 352 352 351 350 349 349 348 348 347 347 348 348 348 348 348 348 347 347 346 345 346 346 346 346 346 344 343 342 340 340 340 340 340 338 337 334 331 329 327 327 329 329 332 334 337 337 337 337 335 337 338 339 340 342 342 342 342 342 342 342 342 341 341 340 340 341 341 341 340 341
334 336 338 340 343 338 340 346 346 350 351 353 354 353 353 352 351 351 351 350 349 348 348 348 349 348 348 348 348 348 348 347 347 346 346 346 346 346 345 345 344 343 342 340 341 339 341 340 337 334 331 328 327 326 327 327 328 331 334 335 335 334 332 330 336 337 337 340 338 339 341 342 343 341 340 341 340 339 339 338 338 338 339 338 339
334 337 338 339 341 336 336 340 343 348 350 351 353 352 353 352 352 351 351 350 350 349 348 348 348 348 348 348 348 348 347 347 346 346 346 346 346 345 345 345 343 343 341 341 341 340 341 340 336 333 330 327 326 325 326 326 328 330 332 333 332 330 327 328 330 334 335 336 336 335 339 340 342 340 339 338 338 338 337 335 335 335 336 337 337
334 336 338 339 339 342 334 336 340 342 346 349 350 351 352 351 351 351 350 350 350 349 349 349 350 348 349 348 348 347 347 346 346 346 346 346 346 345 344 343 343 342 341 340 340 341 340 338 335 332 329 326 325 324 324 325 327 328 330 331 329 326 323 328 330 330 332 333 334 335 337 338 338 336 335 336 336 334 334 333 333 333 334 334 334
335 336 337 338 339 340 341 337 335 337 341 344 346 347 349 350 350 350 350 350 350 349 349 349 350 349 349 349 348 347 347 346 346 345 345 345 345 344 344 343 343 342 341 339 338 340 338 337 334 330 328 325 323 323 323 324 325 327 329 329 326 324 321 323 328 329 329 332 333 334 335 336 338 335 334 333 334 334 332 332 333 332 333 332 331
333 335 336 337 337 338 339 341 339 333 335 336 340 341 344 347 348 348 348 348 348 348 348 349 349 349 349 349 348 346 345 347 346 345 345 344 344 343 345 342 342 341 339 337 338 340 338 335 332 329 326 324 322 321 322 322 324 326 328 327 325 323 320 320 327 327 329 330 330 333 334 336 337 332 332 332 332 333 333 331 332 331 330 330 330
330 334 335 337 337 337 338 340 341 342 344 338 334 337 341 344 345 345 345 345 345 346 346 346 346 346 345 344 343 342 344 345 345 344 345 345 343 342 343 343 341 340 338 339 340 339 336 333 331 329 326 323 321 321 321 321 322 325 326 325 323 321 320 319 327 326 329 328 331 331 333 335 333 333 333 332 331 332 331 331 330 330 329 327 328
326 331 334 335 336 337 338 339 341 343 343 344 345 343 334 339 341 341 341 342 343 342 343 342 341 342 342 340 338 337 337 338 339 341 341 339 337 336 342 343 341 339 339 340 339 337 335 333 331 328 326 323 320 319 319 320 321 323 324 321 318 316 314 320 325 326 328 329 329 330 332 334 333 332 332 331 331 330 330 329 328 326 327 326 328
321 327 331 333 334 336 337 338 340 342 343 343 344 345 336 332 336 337 338 339 339 340 339 337 335 335 334 334 331 335 333 338 330 339 334 338 335 336 337 339 342 338 339 339 338 336 334 332 331 329 326 323 321 320 319 319 319 321 321 319 315 313 322 321 322 324 324 325 325 329 330 333 332 332 331 331 330 330 329 328 327 326 325 328 327
318 324 326 330 331 333 335 337 339 341 342 343 343 344 343 330 333 332 332 335 336 335 336 331 328 327 328 325 324 339 342 342 339 342 329 341 328 328 334 338 341 340 339 338 337 335 334 332 330 329 325 320 316 314 315 317 317 318 317 314 310 318 317 320 321 320 320 319 323 327 329 331 329 331 330 330 329 328 328 327 325 325 327 327 327
315 318 321 327 330 332 334 336 337 339 341 342 343 343 343 336 344 343 342 339 333 331 338 343 330 338 322 329 336 337 340 342 340 333 338 336 331 325 330 335 339 336 337 338 336 335 333 332 330 327 322 316 310 308 305 307 311 311 310 308 314 316 316 318 319 319 319 321 320 325 331 329 328 330 330 329 327 327 326 326 327 327 327 327 326
307 310 313 317 323 331 333 335 336 338 340 341 342 343 343 341 341 345 344 333 337 335 341 337 336 338 338 338 336 340 338 337 338 335 335 326 333 324 328 331 333 331 335 336 335 334 333 332 329 324 318 311 307 306 304 305 306 304 304 310 312 313 314 316 317 316 316 313 317 321 329 329 328 328 328 328 326 327 325 326 327 327 326 326 325
302 304 306 312 316 325 331 334 335 337 338 340 341 342 343 344 343 341 344 344 342 341 341 339 337 337 338 337 338 340 339 339 328 324 328 334 330 321 325 327 328 327 329 332 332 333 332 330 326 320 313 307 304 302 302 304 304 304 305 305 309 309 312 313 314 314 313 314 316 318 326 331 329 327 327 328 327 325 326 327 326 326 325 325 325
301 303 306 306 308 313 325 331 335 336 337 338 339 340 342 342 344 343 340 340 343 343 342 341 340 338 337 337 338 338 338 337 335 334 334 332 331 330 331 331 333 332 325 331 331 332 330 328 320 312 311 308 304 301 302 304 302 303 304 303 304 307 310 311 311 313 314 313 315 314 320 325 330 330 328 328 327 326 325 326 326 325 325 323 324
302 303 304 305 306 308 312 327 333 335 336 337 338 339 340 341 341 342 342 342 340 339 342 341 340 339 337 336 335 334 336 337 336 335 335 333 331 330 329 330 329 329 329 329 329 328 324 323 318 313 308 304 303 303 304 302 303 302 302 303 303 303 306 309 309 310 310 310 313 311 315 320 325 329 330 330 328 327 325 327 327 326 326 324 324
301 303 304 306 308 309 309 317 329 334 335 337 338 338 339 340 340 340 340 340 342 340 339 337 337 339 339 337 336 336 336 335 333 331 332 332 331 331 329 329 331 330 327 327 326 326 324 320 316 312 306 306 304 304 303 303 303 304 303 303 303 302 303 305 307 308 308 308 307 308 311 316 321 325 328 331 329 328 326 325 327 326 325 325 324
301 303 305 307 309 310 310 312 323 332 334 336 337 338 339 339 340 338 338 335 338 338 340 339 337 338 338 337 335 337 336 333 333 332 332 331 329 326 327 328 328 325 322 325 324 321 318 317 315 309 307 306 307 306 305 304 303 303 305 304 303 303 302 302 303 306 307 307 307 305 308 313 317 321 325 327 331 331 329 326 326 328 326 325 324
301 302 304 307 309 311 311 311 321 328 333 335 335 337 338 338 338 338 339 334 339 340 338 339 336 335 334 335 335 334 333 333 332 333 330 330 329 328 326 325 323 321 323 324 323 319 319 318 315 312 309 307 305 306 304 303 303 302 303 304 303 302 302 302 302 303 305 306 306 306 307 311 314 317 320 324 328 331 330 327 327 327 327 326 325
299 302 304 305 308 312 314 313 319 325 330 334 335 335 335 336 336 336 337 337 338 335 333 334 334 336 334 332 333 335 334 334 333 332 332 330 328 327 327 324 321 320 322 321 320 321 320 316 314 312 310 308 307 304 303 305 303 302 302 303 302 301 301 301 301 301 302 304 305 306 305 308 310 314 317 320 324 327 330 332 328 327 327 328 326
300 302 302 303 307 311 315 315 316 322 327 331 333 334 334 335 334 335 334 335 336 336 333 332 333 333 331 332 333 331 329 331 332 331 331 330 326 325 326 325 324 322 322 323 317 319 319 318 316 314 312 310 308 302 302 304 304 303 300 302 301 300 301 300 300 300 301 302 304 305 306 303 306 309 313 317 321 324 327 331 332 333 333 327 328
298 299 301 303 305 307 313 315 318 322 326 327 328 332 332 332 331 333 334 335 331 331 332 334 329 330 330 330 332 332 331 329 328 327 329 326 326 326 327 324 323 320 319 320 318 317 317 315 313 313 311 310 307 303 302 305 305 302 301 301 300 301 300 300 300 300 300 301 302 304 305 305 302 306 310 314 318 320 323 326 329 330 331 332 329
298 299 300 304 303 306 311 314 318 322 326 326 326 328 330 331 332 331 330 330 330 329 326 326 326 327 325 324 324 324 325 329 328 326 324 326 325 324 323 323 322 319 317 317 316 315 313 312 310 310 309 308 309 306 303 304 305 303 301 300 300 301 300 299 300 300 300 301 301 302 304 305 305 304 306 309 312 316 319 323 325 328 329 330 331
296 298 300 302 303 306 309 313 315 316 317 322 323 324 323 322 321 321 319 319 318 318 317 318 318 319 319 319 320 319 320 322 323 323 323 325 323 322 322 320 319 318 317 316 315 313 314 314 311 312 310 311 311 310 309 311 308 303 303 300 300 300 299 299 299 299 299 300 301 301 303 304 305 306 307 306 307 310 315 319 321 323 326 327 329
295 296 297 299 302 305 308 313 314 315 316 317 318 317 317 316 316 315 314 314 314 314 315 315 314 314 315 315 315 316 318 319 319 319 318 318 319 318 316 316 315 314 314 313 314 313 315 314 310 312 309 309 308 306 307 308 306 306 303 300 300 299 299 299 298 299 299 300 299 300 301 303 304 305 306 307 305 306 308 313 317 320 323 325 326
294 295 296 298 300 303 308 312 314 315 315 315 315 314 313 313 312 310 311 311 311 310 311 311 311 312 311 312 313 313 314 315 316 317 316 316 315 314 312 312 313 313 312 312 312 312 310 310 307 309 310 310 306 307 302 304 302 302 300 299 298 298 299 298 299 299 298 297 298 299 300 302 303 304 304 306 307 306 304 308 312 316 318 319 321
294 294 295 297 298 300 302 308 311 314 314 314 313 312 311 309 308 307 306 306 306 307 308 308 308 308 308 309 309 310 311 312 312 313 313 312 312 311 311 311 311 311 310 310 308 308 308 307 305 303 304 306 304 304 304 301 300 300 299 298 298 297 298 298 298 298 297 298 298 298 299 301 301 301 305 305 306 306 304 304 308 310 311 312 316
293 294 294 295 297 298 299 301 303 310 313 312 310 308 307 306 305 304 303 302 301 302 302 303 302 303 304 304 306 306 308 309 310 311 310 310 310 310 310 311 311 310 309 308 307 307 307 307 306 302 302 303 302 300 300 300 299 299 299 299 298 297 298 297 297 297 297 298 298 298 299 299 300 301 302 303 304 304 305 305 304 305 305 307 312
292 293 293 295 296 297 298 298 299 301 308 309 308 307 305 303 302 302 301 299 298 297 298 297 298 298 299 300 301 303 304 306 307 308 307 307 307 308 308 309 310 310 309 308 307 306 305 305 306 303 300 300 300 298 297 296 297 298 298 298 297 297 298 296 296 296 297 297 297 298 298 298 298 299 299 300 301 302 303 304 305 305 307 304 308
291 292 293 293 294 296 297 297 298 299 302 305 305 303 301 300 299 299 298 297 296 295 295 295 295 295 296 296 297 298 300 302 303 305 305 305 305 305 305 306 307 306 305 304 304 303 303 303 302 303 302 299 297 296 296 295 297 298 299 298 297 297 297 296 296 296 296 296 296 296 296 297 297 297 297 298 299 300 301 302 301 303 304 304 304
290 290 291 292 292 293 295 295 296 298 299 300 301 301 299 298 297 295 294 295 295 294 293 293 293 293 294 294 294 295 296 298 299 301 301 301 302 302 302 303 305 304 303 302 302 302 302 302 301 300 302 301 299 295 296 295 297 301 299 300 300 297 295 296 295 295 296 296 295 295 295 295 297 297 297 297 298 298 299 300 301 302 302 303 303
288 289 289 290 291 292 293 294 295 296 297 297 298 298 298 296 295 293 293 293 292 291 290 290 290 291 291 292 293 293 294 295 297 298 298 299 299 299 299 299 301 302 302 302 301 300 301 301 302 303 299 298 297 294 296 299 298 294 295 297 298 299 298 294 295 296 296 296 295 294 295 295 296 296 296 296 297 297 298 299 300 300 301 302 302
287 288 289 290 290 291 292 293 294 295 296 296 296 295 296 297 296 294 293 290 291 290 290 289 289 288 289 289 290 291 292 292 294 294 295 295 296 296 296 297 297 298 297 297 297 297 298 298 299 299 300 299 295 296 295 296 295 294 294 293 295 296 301 297 295 297 298 294 293 294 295 295 295 295 295 295 296 297 297 297 297 298 299 300 301
286 287 287 288 289 290 290 291 292 293 294 295 295 295 294 294 293 292 292 291 289 289 289 288 288 288 287 288 288 289 289 290 291 292 293 293 294 294 295 295 295 296 296 295 295 295 296 296 297 297 298 297 297 297 295 295 294 295 297 294 294 290 294 295 292 296 294 293 293 295 294 295 294 295 295 296 297 296 296 296 295 296 296 297 298
285 285 286 287 287 288 289 290 291 291 292 293 294 295 294 293 292 291 291 289 289 288 287 286 287 287 287 287 287 288 288 288 289 289 289 290 291 291 292 293 293 294 295 294 294 294 295 295 295 296 296 295 295 295 297 297 296 295 294 293 293 292 293 292 291 296 293 296 297 295 294 294 295 295 295 296 296 295 295 295 296 295 295 295 296
284 285 285 286 286 287 288 289 290 290 290 291 291 292 291 291 290 288 286 285 284 285 284 284 285 285 285 287 287 287 288 288 288 288 288 288 288 289 289 289 290 291 292 292 293 293 293 293 294 295 294 295 295 294 294 296 295 295 295 293 294 291 289 289 290 292 295 296 294 293 295 295 293 294 294 294 296 296 295 295 295 296 296 295 295
284 285 285 285 286 286 287 287 288 288 289 289 289 289 287 287 286 285 285 285 284 284 285 286 286 286 287 286 286 287 287 287 287 287 288 288 288 288 288 288 288 289 289 290 290 290 291 292 293 293 293 294 295 293 292 293 295 295 295 295 293 292 291 289 288 288 289 293 293 296 297 297 293 293 295 295 295 295 295 295 295 296 295 295 295
284 284 285 285 285 285 285 286 286 287 287 287 287 288 286 286 286 285 285 285 285 284 285 285 286 286 286 286 286 286 287 287 287 287 287 287 287 287 287 287 287 288 288 288 288 289 290 291 291 291 292 292 292 292 292 292 291 292 293 293 293 294 293 292 291 289 287 285 290 294 293 294 295 295 295 295 295 295 295 295 295 295 295 295 295
284 283 284 284 285 285 285 285 285 285 286 287 286 287 287 286 286 286 285 285 285 285 286 286 286 286 285 286 286 286 286 287 287 287 287 287 287 287 287 287 287 287 287 287 288 288 288 288 289 289 289 290 290 291 291 291 291 291 292 292 292 292 292 292 291 290 288 287 288 290 291 293 294 295 295 295 294 294 294 294 295 294 294 295 295
283 284 283 284 284 285 285 285 284 285 286 286 286 286 286 286 285 285 285 284 285 285 285 285 285 285 285 285 285 285 286 286 286 287 287 287 287 287 286 286 286 286 286 286 287 287 287 287 288 288 288 288 289 289 289 289 290 290 290 291 290 290 291 291 291 290 290 289 287 287 289 289 288 291 294 294 295 296 295 294 294 294 294 295 295
283 283 283 283 284 284 284 284 284 285 285 286 286 285 286 286 285 285 285 284 285 285 284 284 284 285 284 285 285 285 286 286 286 286 286 287 286 286 286 286 286 286 286 286 285 285 286 286 287 287 287 286 286 287 288 288 288 289 289 289 289 289 289 288 289 289 288 287 287 288 289 289 288 288 292 294 293 294 294 294 293 294 294 294 295
Wind_Speed
10 6 5 9 9 10 14 14 14 13 13 13 13 13 13 13 13 13 12 11 11 11 10 9 9 9 8 8 8 8 10 10 10 9 8 9 9 9 9 11 11 12 13 13 13 13 13 14 13 13 13 14 14 15 14 14 15 15 14 15 14 15 14 14 14 13 13 13 13 14 13 13 13 13 14 14 14 14 13 12 9 8 7 9 11
10 7 5 7 9 10 13 14 14 13 13 13 13 13 13 13 13 13 12 12 12 11 10 10 9 9 9 8 8 8 8 10 9 9 9 8 9 9 10 11 11 12 12 13 14 14 14 13 13 13 13 14 14 14 14 14 14 14 13 13 13 13 13 12 12 12 11 11 11 11 11 13 13 13 13 14 15 15 13 12 12 8 7 11 12
3 6 5 8 9 9 12 13 15 14 14 13 13 12 12 13 12 12 12 12 12 11 10 9 9 8 9 9 9 8 8 8 8 8 8 8 9 10 10 11 10 11 13 13 14 14 13 13 13 13 13 12 12 12 12 12 12 12 11 11 11 11 11 10 10 10 10 10 10 9 8 8 11 12 12 14 15 15 13 13 13 11 9 14 12
7 5 5 8 10 9 11 12 13 13 13 12 13 11 13 13 12 12 11 11 11 10 10 9 9 9 9 9 8 8 8 8 8 8 8 8 9 9 10 11 10 12 12 13 13 13 13 13 13 13 13 13 13 12 12 11 11 11 11 10 10 9 10 9 7 8 8 8 9 7 5 6 8 11 12 12 14 14 12 14 14 14 14 14 15
8 6 6 6 9 8 11 11 12 12 12 12 13 13 13 13 12 12 11 11 10 10 9 9 8 8 8 8 9 8 8 8 8 8 8 8 8 9 10 11 12 12 12 13 12 13 13 13 13 14 14 14 13 13 12 11 10 10 9 9 9 9 9 8 6 6 8 7 7 5 5 6 5 10 11 12 13 13 12 13 14 15 14 15 15
7 6 7 6 8 9 9 10 11 12 12 11 12 12 13 13 13 12 12 11 10 10 9 9 9 8 8 8 8 8 7 7 8 8 7 7 8 9 10 11 10 12 12 12 12 12 13 13 13 13 14 14 14 13 12 11 10 9 9 8 8 8 8 7 6 6 7 7 6 4 4 5 7 6 11 12 13 13 12 13 14 14 14 14 13
7 6 7 8 8 8 8 11 10 12 13 11 12 12 13 13 12 13 12 12 11 10 10 9 9 8 8 8 8 7 7 7 7 7 7 7 7 8 9 9 10 10 11 12 12 13 13 13 13 13 13 13 13 12 11 11 10 9 9 8 8 7 7 7 7 7 7 4 4 5 5 6 6 5 10 11 12 13 13 13 13 13 14 14 14
5 7 7 7 8 8 9 10 9 11 13 10 11 11 13 13 12 12 12 11 11 11 11 10 10 9 9 9 8 8 7 7 7 6 6 6 7 8 8 9 10 10 11 10 10 12 12 12 11 11 12 12 12 11 10 10 9 9 8 7 7 7 8 8 8 8 7 5 4 4 5 6 6 5 9 11 12 12 12 13 13 12 13 13 11
6 6 6 7 8 9 8 10 10 10 13 11 11 11 11 13 11 11 11 11 10 11 11 11 11 11 11 10 9 8 9 8 8 7 6 6 6 8 8 9 9 9 9 10 10 11 11 11 11 11 11 11 11 10 10 9 8 8 8 7 7 7 8 8 8 7 5 4 4 5 5 6 6 5 8 11 12 12 12 10 10 11 13 12 10
5 6 5 6 7 9 8 8 11 10 14 11 10 10 12 11 10 11 11 10 10 10 10 11 11 11 11 10 9 9 9 9 8 7 6 6 7 7 8 10 9 8 7 8 9 9 10 10 9 10 10 10 9 9 8 8 7 7 7 7 7 8 8 8 8 5 5 5 5 5 5 4 6 5 8 10 11 11 10 9 8 9 9 10 11
6 7 6 5 7 7 8 9 9 9 11 11 11 10 11 11 9 11 10 10 10 9 9 10 10 11 10 10 10 9 10 10 10 9 8 7 7 8 9 10 9 8 7 8 8 7 7 7 8 10 10 9 8 8 8 7 7 6 6 7 7 7 8 8 6 4 3 4 5 4 4 4 4 5 8 9 10 10 10 9 9 10 10 12 12
6 4 5 4 5 7 7 8 8 9 9 10 11 10 11 10 10 10 10 10 9 9 9 9 9 10 9 9 10 9 10 10 10 10 9 9 8 8 9 10 9 8 8 7 6 6 6 7 7 9 9 8 8 8 7 7 7 6 6 7 7 8 8 7 4 3 3 4 4 3 3 2 2 4 7 8 8 9 9 9 10 10 11 10 11
6 4 3 4 6 5 6 7 6 8 8 9 10 12 10 10 10 10 8 9 9 9 9 8 7 9 8 9 8 8 9 10 10 10 10 9 8 9 10 9 7 7 7 7 9 6 8 8 8 9 8 8 7 7 8 8 6 6 7 7 8 8 7 6 3 3 3 3 3 2 2 2 2 4 6 7 7 7 8 8 8 8 9 9 9
5 5 2 2 2 4 5 5 5 5 7 7 8 10 9 9 10 9 8 7 7 8 8 8 8 8 8 8 8 7 8 9 9 9 9 9 10 10 10 9 8 9 9 8 8 8 8 8 8 8 8 7 7 8 8 7 7 6 7 8 8 8 6 4 3 3 3 2 2 2 2 1 3 5 5 6 6 7 6 6 6 7 7 7 7
5 5 5 2 1 3 4 4 3 4 6 6 7 8 9 10 10 9 9 7 6 7 7 7 6 8 5 7 7 6 8 8 9 8 9 9 10 11 11 10 9 8 7 7 8 9 10 8 8 8 8 7 7 7 8 7 7 6 7 7 8 7 5 3 3 2 2 2 2 2 2 2 6 1 3 4 5 5 5 6 5 6 6 7 7
3 5 4 3 2 2 3 3 3 3 4 5 6 6 8 8 8 8 7 7 6 7 7 6 5 6 5 5 6 6 7 7 8 8 8 8 9 10 10 9 9 8 8 6 6 10 9 9 9 8 7 7 7 7 7 7 7 6 7 7 7 6 5 3 2 2 1 1 2 2 2 2 6 1 2 3 4 4 4 5 6 6 6 6 6
3 2 4 3 2 2 3 4 3 2 2 3 5 5 6 7 8 8 7 6 6 6 7 6 5 5 5 4 3 4 4 5 6 8 8 7 7 7 7 7 7 6 6 5 7 10 9 9 9 8 7 7 7 7 6 6 6 6 6 6 6 6 5 3 2 2 1 2 2 2 2 3 6 1 2 4 4 4 5 5 5 6 6 6 6
3 3 4 2 1 1 2 3 4 3 2 2 3 5 6 6 7 8 7 6 6 6 6 5 4 4 4 3 3 3 4 4 5 5 6 5 5 5 5 7 7 6 4 7 11 11 10 9 8 8 7 7 7 6 6 6 6 6 6 6 6 6 5 3 2 1 2 2 2 2 2 6 5 4 4 4 3 4 4 5 5 5 6 6 6
4 3 1 1 2 1 2 3 4 5 3 3 3 4 6 7 7 7 7 7 6 6 5 4 4 3 2 3 5 5 4 5 5 7 5 5 4 4 4 6 7 6 9 11 11 11 10 9 8 7 7 8 7 6 6 6 6 6 6 6 5 5 5 2 2 2 2 2 2 2 3 7 3 2 2 3 3 3 3 4 4 3 4 5 5
4 6 4 2 1 2 2 3 4 6 5 4 3 4 4 6 7 7 7 7 6 5 5 5 4 3 4 4 5 5 4 3 7 5 6 6 6 4 5 5 5 8 10 10 11 10 10 9 8 8 8 8 8 7 7 7 6 6 5 5 5 4 2 1 2 2 2 2 2 2 4 6 4 3 2 2 2 2 2 2 3 3 2 4 5
5 4 3 4 4 2 3 3 4 6 7 6 5 5 5 6 5 7 7 7 5 5 5 6 5 3 3 4 5 3 3 4 5 3 5 5 7 6 5 4 5 7 10 10 10 9 9 8 8 8 9 8 8 8 8 8 8 7 6 5 4 2 2 2 1 1 2 2 2 2 6 4 3 3 2 1 1 1 2 2 1 2 2 3 5
6 5 5 4 4 3 3 4 5 6 6 6 6 4 4 5 7 5 5 6 6 5 5 5 5 4 5 3 2 3 2 4 4 3 3 5 7 7 4 3 3 7 9 11 10 10 9 8 8 8 9 8 7 3 3 5 8 8 6 5 2 2 2 2 2 2 2 2 2 3 7 3 1 2 1 1 0 1 1 1 1 2 2 2 3
8 8 7 6 6 5 4 5 6 6 6 6 5 5 5 5 4 8 6 5 5 6 4 3 3 5 5 5 4 4 3 1 2 3 3 4 7 10 7 6 7 6 7 8 9 11 10 8 8 8 8 8 4 3 2 2 3 5 5 3 2 2 2 2 2 2 2 2 3 6 8 4 2 2 0 0 0 1 1 1 1 1 3 4 2
8 7 8 7 5 5 6 6 6 6 7 6 5 4 5 6 5 2 5 7 7 5 5 4 3 3 4 3 4 4 4 4 4 7 5 3 3 7 4 2 3 8 10 6 8 10 10 10 8 7 4 2 2 2 2 2 2 2 2 2 2 2 3 2 2 2 2 3 3 9 9 7 4 3 1 1 0 1 1 2 2 2 2 2 2
7 8 5 7 8 7 7 6 7 6 7 6 5 5 5 4 6 5 2 2 7 7 6 6 5 5 4 5 5 5 4 4 3 2 3 4 3 3 5 4 3 3 6 6 5 7 5 4 3 3 2 2 2 2 2 2 2 2 2 2 2 2 2 2 2 2 2 3 3 9 10 10 8 4 4 2 2 1 2 2 2 1 1 1 2
6 7 9 8 8 7 7 6 7 8 7 7 6 4 6 6 6 7 7 3 2 2 4 6 7 8 7 6 4 4 4 4 5 5 5 6 5 3 3 5 6 5 2 3 3 5 4 4 3 3 2 1 2 1 2 2 2 2 2 2 2 2 2 2 2 2 2 3 4 10 10 12 11 9 6 6 4 3 3 4 3 4 4 1 2
8 8 8 8 8 8 6 7 7 7 7 6 6 5 5 5 5 6 8 8 6 6 5 2 2 4 5 5 5 6 6 6 4 4 5 2 1 1 4 4 3 5 7 4 5 5 4 4 4 3 2 2 2 2 2 2 2 2 1 2 2 2 2 2 2 2 2 2 3 8 10 11 13 12 11 9 6 5 4 4 6 5 3 3 2
6 10 9 9 11 11 9 5 6 6 6 5 6 6 5 5 5 4 2 1 5 3 4 1 3 5 6 7 4 5 7 6 6 6 5 4 6 4 1 2 3 2 1 2 3 3 3 2 5 4 3 2 2 2 2 2 2 2 2 2 2 1 2 2 2 2 2 2 2 6 9 10 12 13 13 12 11 10 8 5 7 7 5 3 3
11 12 10 9 10 10 8 5 4 6 4 5 5 4 4 5 4 5 5 4 3 5 3 2 4 2 1 2 2 3 3 6 7 7 5 5 4 4 4 3 1 0 2 2 3 5 4 4 4 4 3 2 2 2 1 1 1 1 1 1 1 1 1 2 2 2 2 2 2 3 7 9 11 13 13 14 14 12 10 8 8 7 7 6 5
10 10 10 10 10 11 9 5 2 2 2 4 3 3 4 3 5 4 4 8 5 4 3 2 2 1 1 3 3 3 5 6 6 6 5 6 6 4 5 5 6 5 4 5 6 6 5 3 3 4 4 3 2 1 0 0 1 1 1 1 1 1 1 1 2 2 2 2 2 2 4 7 8 10 11 13 14 14 13 12 9 8 8 9 8
10 12 10 10 9 10 11 7 2 2 2 1 4 4 3 3 3 3 3 0 2 1 3 3 3 3 3 2 2 3 2 2 4 5 4 2 3 5 4 3 4 2 2 3 3 3 2 2 4 5 3 3 2 1 1 0 0 1 1 1 1 1 1 1 1 1 2 2 2 2 3 5 6 7 9 11 12 13 13 12 13 13 13 9 9
10 11 9 8 9 10 10 10 4 2 3 3 4 5 4 4 3 4 3 3 5 3 3 3 4 4 0 1 1 1 2 3 4 4 5 5 4 2 3 3 2 3 3 1 1 2 2 2 3 3 3 3 3 2 1 1 0 0 0 1 0 1 1 1 1 1 1 1 1 2 2 3 4 6 7 8 10 11 12 13 13 13 11 12 10
7 8 9 9 10 9 9 9 8 5 5 5 5 6 6 4 5 3 3 5 9 9 10 10 10 8 9 10 9 8 6 4 1 3 3 3 3 2 0 1 2 2 2 4 4 3 3 3 3 2 2 2 2 2 1 1 0 0 0 1 1 1 1 1 1 2 2 1 1 1 2 2 3 5 5 6 8 9 11 11 13 13 13 13 13
7 7 8 11 8 6 6 7 8 9 9 8 8 9 9 10 10 11 11 12 10 9 9 8 9 9 9 11 9 9 7 7 7 7 7 4 3 3 5 5 4 2 3 3 3 2 2 2 2 2 2 2 2 1 1 1 1 0 1 1 1 1 1 2 2 2 2 2 1 2 2 2 2 3 3 5 6 9 10 11 12 12 13 13 13
7 9 11 10 10 9 7 7 9 10 10 10 11 11 10 10 10 11 11 10 11 9 8 9 10 9 9 10 9 9 8 8 7 7 7 7 7 6 7 6 5 5 5 6 5 3 2 1 1 1 1 1 1 1 0 0 1 2 1 1 2 1 1 2 2 2 2 2 1 2 2 2 2 2 3 3 5 6 8 11 11 12 12 12 13
11 9 8 8 10 12 11 11 11 12 12 12 12 12 13 12 11 12 11 11 11 11 9 9 9 8 9 9 11 12 10 10 9 8 8 7 6 7 5 5 5 5 6 5 6 6 5 5 5 5 5 3 4 3 3 3 3 4 3 3 2 2 2 2 3 3 2 2 2 2 2 2 2 2 2 2 2 3 5 8 10 12 12 12 13
9 10 10 9 10 12 11 13 12 11 13 13 14 13 12 12 13 12 11 12 11 8 9 8 9 10 10 11 10 10 11 10 11 10 8 8 8 8 6 6 6 6 5 5 5 4 5 5 5 4 3 3 4 4 3 3 3 3 3 3 3 3 4 3 3 2 1 3 3 3 3 3 2 3 2 2 2 2 2 5 8 9 10 11 12
8 9 9 8 8 7 8 9 9 10 11 11 11 11 12 12 11 11 13 13 11 10 9 9 11 11 11 10 8 9 11 11 11 9 9 10 7 8 8 8 6 6 6 6 6 3 5 4 4 3 3 3 2 2 2 1 1 2 2 3 3 2 3 3 3 3 3 3 3 3 3 3 2 3 3 3 3 3 3 4 6 6 6 8 10
8 9 9 8 7 7 7 9 9 8 10 10 11 11 12 11 10 12 13 12 10 11 9 10 10 10 10 10 10 11 11 10 11 11 11 9 9 9 8 8 6 6 7 5 4 4 6 5 4 3 3 3 2 1 1 1 3 3 3 3 2 4 3 3 2 3 3 3 4 4 2 3 2 2 3 3 3 4 4 4 4 4 4 6 9
8 9 10 10 10 9 7 9 9 7 6 7 9 9 10 10 10 10 13 11 10 10 11 11 10 11 11 11 11 11 11 10 11 10 10 9 10 9 10 10 8 8 8 9 8 7 7 6 6 5 4 3 4 2 2 3 3 4 4 3 3 4 4 2 3 2 2 3 3 3 3 3 3 3 2 2 2 2 3 3 3 4 4 5 8
11 10 10 11 11 8 9 11 7 6 7 7 8 8 9 8 11 12 11 9 9 8 11 11 11 10 9 10 11 10 10 10 9 10 10 10 9 9 9 10 9 8 10 10 8 7 5 4 3 4 4 5 5 4 3 1 3 3 0 3 4 1 4 2 2 2 2 3 2 2 2 3 3 3 2 3 3 3 3 3 3 3 4 3 4
11 10 11 9 8 9 10 6 5 9 9 8 7 10 8 9 10 8 9 9 9 9 10 10 9 9 11 11 10 9 10 10 9 9 10 9 9 9 9 8 7 8 8 7 6 5 7 7 4 2 2 4 3 2 4 3 3 4 5 6 2 4 1 2 2 2 3 2 2 1 2 3 3 2 2 2 3 3 3 3 3 4 4 4 4
7 8 7 9 10 10 8 7 8 8 8 7 9 9 7 7 10 8 8 10 10 9 10 9 9 10 11 11 11 11 11 10 10 10 9 8 8 8 7 8 9 7 7 8 8 9 7 7 7 6 4 4 2 3 6 5 3 3 3 2 3 5 2 2 1 4 5 2 1 1 1 3 3 2 2 3 3 4 3 3 4 4 5 4 4
6 7 9 10 8 8 8 8 7 7 7 8 10 9 12 11 11 11 10 10 8 7 9 9 9 11 13 10 11 10 11 11 11 11 10 10 10 10 9 9 9 8 7 8 9 9 9 8 8 8 5 6 6 5 4 4 2 5 4 3 3 1 5 2 6 7 3 2 1 1 1 2 2 2 2 3 3 3 3 3 5 5 5 5 4
7 8 8 8 6 8 7 7 7 8 7 7 7 6 8 9 7 8 7 8 8 8 9 11 10 9 9 12 11 10 10 10 10 11 10 10 10 9 9 9 9 8 7 8 8 7 7 7 7 6 7 5 5 5 5 5 6 5 4 3 3 1 2 6 9 6 1 4 5 3 2 1 1 2 2 3 3 3 3 4 4 5 5 5 5
7 7 6 7 8 7 8 8 7 7 7 8 7 6 7 7 6 8 9 9 10 10 10 8 9 10 10 6 9 10 10 10 10 10 10 10 10 10 9 10 9 9 8 8 7 8 9 9 8 6 7 7 3 5 6 7 5 6 5 2 2 4 5 5 5 6 3 5 4 2 1 2 1 2 2 3 4 4 2 4 4 5 5 5 5
7 5 6 8 9 8 7 7 7 6 6 7 7 8 11 10 12 12 10 9 10 7 6 6 7 6 7 9 8 10 10 10 11 10 10 10 10 9 9 9 9 8 8 8 9 9 8 8 8 8 7 6 6 7 7 6 3 5 7 4 3 2 2 4 4 5 10 2 2 4 4 3 2 2 4 5 5 4 4 3 5 5 5 5 5
5 6 7 8 11 10 8 8 6 7 6 7 10 8 11 10 11 11 9 9 9 8 7 7 6 6 8 9 8 8 9 10 10 10 10 10 10 10 9 9 9 9 8 8 8 7 7 8 8 8 7 8 8 7 6 6 6 5 5 6 6 3 1 3 4 4 5 10 10 2 2 2 4 6 6 6 5 5 5 4 5 5 4 5 5
5 6 6 7 8 9 9 8 8 7 7 9 10 10 10 9 9 8 11 8 8 7 6 6 7 6 9 8 8 7 8 9 9 10 10 10 9 9 9 10 10 9 8 8 8 8 9 9 9 9 9 8 7 6 6 6 6 6 6 6 5 5 5 1 2 1 4 8 11 11 10 7 7 4 4 3 4 4 5 6 5 6 6 6 5
4 5 6 6 8 8 9 10 10 7 6 8 9 11 10 8 10 9 12 8 7 7 6 7 7 6 9 8 7 7 7 7 8 9 9 9 9 9 9 10 9 9 8 9 9 9 9 8 8 8 8 9 7 7 7 5 5 5 5 4 5 6 4 4 2 6 3 3 7 12 12 13 14 5 4 7 6 6 5 5 5 5 6 6 5
4 5 6 7 7 8 8 12 9 7 7 8 10 11 9 8 10 10 10 10 8 7 8 8 6 7 8 7 7 6 6 7 7 9 9 9 8 8 8 8 8 8 8 9 9 8 7 7 6 7 9 9 7 7 7 7 5 6 7 6 5 5 4 4 6 5 4 5 7 8 11 9 9 15 5 5 5 6 6 5 6 6 6 6 6
Wind_Direction
222 207 188 195 188 176 168 166 163 160 154 153 152 149 145 141 136 131 133 129 125 125 123 123 123 119 115 113 111 108 106 104 97 95 88 75 87 94 95 99 97 92 86 81 77 74 74 71 71 66 62 61 62 60 60 62 61 63 60 54 52 52 48 49 50 44 42 43 52 59 62 63 63 61 64 67 65 61 57 53 46 60 63 60 54
181 205 194 188 191 175 171 166 164 163 159 156 156 152 148 143 137 138 135 132 129 131 129 128 127 127 124 116 108 106 106 106 101 95 79 91 97 99 100 97 92 93 91 86 83 79 75 72 68 63 60 58 57 57 56 56 57 56 57 57 56 53 50 49 49 48 50 49 41 39 37 63 63 64 63 64 63 61 58 52 44 51 62 66 68
191 182 189 188 187 180 170 169 166 165 163 159 158 154 147 142 140 139 138 135 133 133 133 131 132 131 129 123 119 116 117 114 111 104 96 88 86 99 93 90 93 96 90 87 82 82 82 77 71 67 64 62 61 59 59 59 60 61 61 58 55 53 50 47 48 49 50 45 41 35 34 34 61 64 64 63 62 61 59 55 52 46 53 55 57
169 180 184 185 189 182 169 171 168 165 165 160 159 154 148 145 142 140 139 136 136 133 132 137 137 139 135 131 127 127 128 123 117 111 98 87 89 99 99 99 98 93 93 89 87 84 82 80 75 68 61 56 54 53 52 52 53 53 54 53 50 49 53 54 54 55 50 47 44 36 39 55 65 68 69 65 63 58 56 57 55 56 54 57 54
175 171 182 179 185 183 173 173 168 165 165 162 159 153 150 148 145 143 141 141 139 135 136 137 142 144 135 134 127 128 126 124 120 111 103 96 95 101 107 104 105 102 95 91 86 80 76 72 68 64 57 52 48 47 46 47 49 50 50 48 45 43 51 60 59 62 58 46 42 44 50 49 46 71 75 74 69 63 57 55 54 52 50 53 52
169 163 174 181 181 183 177 173 168 165 165 162 155 154 155 151 149 148 146 146 144 140 140 143 145 146 143 135 128 129 124 123 123 114 104 100 98 101 108 110 105 100 96 93 86 78 71 67 64 61 57 51 45 40 38 38 39 44 47 46 46 45 51 63 71 73 68 63 48 48 42 47 67 67 70 73 73 66 62 59 56 53 51 49 49
169 163 168 177 180 182 177 174 172 166 167 163 158 157 159 155 156 154 152 151 148 146 146 146 147 151 140 137 134 132 125 127 128 117 106 104 103 102 108 112 107 96 92 84 81 77 70 64 60 57 56 52 47 41 35 32 32 36 40 45 46 48 51 63 75 78 68 63 69 63 64 61 67 68 76 73 70 66 62 60 57 53 52 48 42
159 170 172 176 180 181 177 174 175 168 169 162 160 161 162 159 160 157 156 156 152 150 148 155 152 148 147 143 142 137 136 137 132 123 111 107 105 102 105 109 111 105 94 87 84 79 71 64 58 56 55 53 48 42 35 29 27 30 38 44 51 54 58 68 76 75 69 75 68 67 68 63 65 72 72 74 69 66 60 59 58 56 53 53 46
165 171 169 176 182 178 180 175 174 171 174 162 163 164 164 163 162 160 159 159 157 151 156 158 158 156 153 151 147 146 144 138 133 127 119 106 106 106 109 105 101 101 102 102 91 80 74 65 60 57 55 52 49 45 38 31 24 23 33 45 56 64 70 75 80 74 72 70 69 74 72 77 73 75 71 72 68 65 61 58 60 59 59 53 52
160 170 169 175 183 180 181 180 177 174 177 166 164 166 170 164 162 162 161 161 161 159 160 166 162 158 156 150 153 149 146 140 136 131 129 122 111 111 113 113 109 104 101 93 83 78 79 72 65 60 56 53 49 50 48 38 28 23 29 43 61 71 75 83 85 82 89 80 80 83 75 62 82 77 84 73 69 65 59 50 55 57 57 57 53
163 171 176 171 181 180 187 185 179 178 182 168 163 169 173 167 167 169 164 164 166 165 167 171 165 161 157 153 155 158 158 152 145 143 140 136 132 124 117 114 112 114 108 87 74 63 64 70 66 60 55 49 48 47 52 46 38 31 33 48 65 77 84 80 86 93 82 92 87 79 73 15 80 77 77 77 71 69 63 59 54 56 56 55 53
167 169 177 176 178 184 190 189 184 180 181 167 165 169 175 170 170 175 175 166 171 169 175 179 171 164 163 160 161 166 162 159 150 150 151 146 141 130 122 119 125 115 91 81 73 71 57 72 68 68 63 57 50 47 49 49 45 39 43 52 69 84 94 82 87 83 74 74 69 56 59 47 34 76 73 71 74 71 66 61 57 53 52 49 49
169 168 170 175 188 192 194 195 190 185 184 168 173 175 176 174 175 180 177 176 179 175 184 186 174 173 174 166 176 170 168 161 158 156 154 146 138 131 129 129 125 116 101 79 52 32 75 88 79 69 63 57 52 51 50 49 48 49 46 57 70 82 83 68 79 71 53 64 65 28 32 28 8 72 73 67 63 59 54 50 48 47 44 43 45
156 174 175 174 181 198 199 205 195 195 188 175 176 183 183 178 175 187 174 178 184 180 188 192 185 183 184 178 184 174 162 168 163 158 155 147 144 142 142 140 130 106 94 84 70 71 98 100 88 78 69 60 55 53 53 50 48 53 51 56 62 64 58 68 52 56 60 35 46 22 16 13 69 77 71 66 62 56 39 35 40 40 40 42 39
165 175 184 170 167 195 203 217 207 207 197 179 179 187 192 180 179 182 181 180 181 174 189 199 185 192 195 186 196 173 165 172 165 159 153 154 150 148 147 136 120 117 106 94 89 100 110 105 91 81 74 66 56 57 57 53 51 53 57 60 63 63 49 82 62 59 56 34 40 21 23 357 341 342 51 48 46 36 38 32 31 31 39 45 38
156 173 165 170 182 196 194 211 229 227 220 191 178 190 199 185 179 181 186 181 177 178 190 201 190 183 195 198 207 178 169 172 173 166 159 159 161 155 149 142 135 130 119 109 100 116 116 106 97 88 79 68 64 61 61 57 55 56 59 65 65 65 58 66 87 67 58 46 38 25 12 7 340 40 38 58 47 39 34 32 33 31 29 30 24
128 93 168 180 162 206 205 201 196 214 242 220 185 186 201 196 181 181 188 183 180 184 193 201 197 182 190 190 204 162 185 170 175 172 163 165 166 155 149 141 129 118 111 100 104 123 111 102 98 92 84 76 69 68 65 59 58 59 64 68 69 67 58 71 85 74 52 46 43 19 20 17 5 315 28 42 39 20 30 30 33 27 19 17 17
60 141 198 180 165 205 220 216 206 197 200 210 217 190 193 205 192 179 175 180 180 191 200 196 194 188 189 176 139 141 160 168 162 167 162 159 154 163 135 133 126 120 95 93 111 114 110 107 104 99 89 81 76 71 65 60 58 61 64 65 65 63 60 58 77 74 55 43 38 21 26 360 19 47 51 51 42 25 10 30 29 25 22 12 10
19 33 64 128 217 255 213 207 216 212 191 188 203 198 198 190 207 190 175 171 182 190 194 184 176 173 167 156 139 135 149 148 159 159 167 147 144 148 144 133 137 112 106 112 116 115 113 112 108 100 92 84 77 71 67 58 55 55 61 60 49 54 55 55 61 52 43 51 26 22 12 346 14 33 12 352 15 10 16 25 23 9 25 25 35
23 13 13 3 310 232 232 217 210 212 204 184 193 177 186 195 181 203 193 177 179 187 175 169 168 139 124 143 137 130 144 141 148 151 164 154 145 155 152 142 126 124 123 118 118 117 116 115 108 99 91 79 70 63 65 63 56 51 51 49 45 40 45 34 39 42 29 35 17 16 349 345 359 317 324 353 351 28 5 27 44 46 42 55 42
19 19 353 343 340 280 236 225 218 215 209 195 191 186 173 185 188 173 185 174 179 185 181 161 150 126 115 123 134 153 163 150 164 157 168 159 154 151 151 169 152 126 127 124 119 118 115 111 103 98 89 81 68 50 40 52 50 46 40 39 33 34 23 19 15 30 32 14 8 7 344 341 341 301 319 338 35 27 77 51 16 86 85 62 55
343 344 349 339 316 303 249 233 227 223 212 206 208 190 167 177 192 180 184 185 177 182 192 191 161 156 130 148 167 158 191 169 166 150 183 174 154 156 159 134 128 127 126 127 126 119 111 107 103 96 91 86 75 66 28 37 43 39 33 23 25 28 10 3 6 9 354 359 335 347 344 350 296 279 11 65 79 103 93 97 93 108 91 73 57
349 345 329 337 315 290 257 230 223 218 219 209 200 191 176 153 216 190 194 203 195 186 191 176 234 171 175 181 175 171 172 183 160 158 162 193 155 155 168 152 125 125 128 121 129 122 116 109 105 100 96 89 81 79 66 23 35 38 35 24 24 16 5 2 9 354 357 337 327 341 342 350 307 303 176 143 119 108 99 139 138 115 56 57 46
333 329 314 315 314 290 262 242 225 208 210 217 202 189 189 189 197 228 214 183 187 193 188 184 221 194 177 192 181 166 167 176 149 164 158 178 151 147 137 106 148 145 136 132 123 113 115 114 110 102 91 76 88 81 85 76 43 36 42 33 22 8 6 2 1 354 341 342 327 339 340 348 339 298 282 230 199 152 203 212 162 182 160 134 132
322 311 309 321 323 316 288 250 229 211 202 210 202 196 185 179 205 216 163 217 184 183 189 200 205 215 188 195 199 171 169 162 173 181 152 134 127 189 147 154 150 104 125 145 149 131 123 118 98 85 106 106 97 88 103 85 62 44 43 32 23 10 0 6 354 347 351 343 334 342 342 341 343 333 303 261 230 213 232 234 221 208 112 305 309
321 335 334 322 321 315 303 275 235 219 205 203 208 187 173 192 192 213 241 211 124 214 233 210 198 186 188 192 171 163 165 176 185 182 177 149 157 174 197 157 154 161 139 162 167 124 134 136 112 107 124 95 89 99 81 78 90 65 39 29 24 14 0 355 355 345 351 343 340 343 342 340 334 333 329 309 268 238 251 259 243 228 175 179 237
342 334 327 326 323 321 309 295 248 214 210 193 194 194 193 176 168 183 202 223 234 238 225 182 207 202 198 178 180 196 174 164 166 174 160 129 38 166 187 184 192 189 179 178 160 155 157 121 125 123 113 117 100 92 83 66 50 61 51 34 20 12 2 353 352 351 347 346 335 342 344 340 334 331 327 320 306 287 262 267 266 269 202 183 224
331 343 343 338 339 329 320 297 262 226 198 198 191 194 188 171 162 147 182 155 159 205 274 194 197 209 201 193 220 216 178 164 167 173 187 173 171 163 200 239 138 117 47 262 131 95 90 138 126 129 131 126 129 90 88 74 63 52 54 29 10 10 359 347 343 342 341 343 338 342 343 339 335 333 329 322 315 313 302 260 268 280 281 197 243
1 352 342 339 338 331 323 301 266 236 217 181 201 172 166 169 164 166 174 243 253 240 205 177 180 163 72 283 201 221 186 165 173 181 168 182 156 152 157 141 69 12 178 147 116 128 171 169 145 131 125 117 103 117 93 88 79 52 37 44 16 7 356 345 346 338 341 336 336 334 337 342 339 335 332 328 322 319 311 297 269 273 282 273 260
354 348 346 343 337 332 341 329 265 244 276 169 181 149 149 159 157 173 205 197 230 105 82 84 45 299 222 143 150 203 223 188 189 181 175 175 172 155 162 171 164 170 177 175 178 172 162 161 140 122 130 141 140 114 83 108 83 66 44 18 24 359 343 349 337 338 332 326 327 320 334 341 342 338 335 330 325 323 320 315 293 269 275 286 282
352 5 355 344 338 341 351 350 317 140 344 89 142 136 111 115 83 81 72 190 275 286 60 66 59 65 37 29 242 164 182 197 184 188 198 134 156 175 189 152 158 139 176 196 151 123 140 153 153 141 157 151 128 120 159 171 121 91 56 35 23 319 346 334 309 318 326 329 323 321 319 331 337 334 330 328 325 324 325 319 316 326 324 290 268
358 353 352 338 346 351 347 5 354 82 91 40 97 98 85 104 94 96 81 78 75 68 14 7 35 17 0 177 153 186 171 156 154 212 215 133 144 197 167 172 147 127 144 76 32 67 106 138 106 103 118 132 129 147 143 180 207 77 18 43 31 341 345 328 307 308 287 293 304 306 316 323 318 322 325 325 323 326 325 322 323 321 315 324 310
343 339 344 357 1 359 1 2 15 31 67 68 65 86 93 71 76 67 78 27 26 24 34 29 30 27 28 22 18 12 2 352 330 154 151 116 131 128 93 60 91 102 102 121 134 138 148 117 88 108 117 123 131 142 125 139 227 261 313 6 326 321 348 310 304 302 302 282 278 290 307 316 311 318 320 323 325 325 323 323 327 327 325 322 319
339 340 346 13 359 16 11 23 24 34 31 28 37 38 38 41 42 44 46 49 51 50 45 44 40 37 43 37 31 30 30 34 35 23 14 8 30 42 23 21 18 40 108 121 149 194 133 128 115 147 157 165 178 141 182 233 224 282 288 337 296 304 314 295 286 285 287 283 296 299 299 304 314 318 321 318 326 326 325 326 327 327 328 326 326
345 353 360 350 10 16 20 47 43 51 52 53 58 59 62 59 57 56 54 53 54 49 43 45 50 40 43 47 41 38 36 43 43 52 47 52 49 44 34 28 35 44 30 16 7 10 9 50 66 95 97 147 126 123 71 310 311 316 318 324 301 301 260 272 279 275 271 292 298 291 297 294 292 294 308 309 318 319 330 330 326 326 326 332 334
3 353 352 351 12 23 29 53 50 63 69 71 72 70 69 71 70 65 57 53 58 49 43 43 45 45 47 47 38 45 36 44 39 40 60 59 68 63 55 54 60 63 52 41 41 33 25 31 28 12 354 357 356 9 12 358 349 330 335 319 314 305 293 280 283 285 303 305 294 292 282 280 273 270 279 287 292 308 324 325 325 324 328 333 332
358 4 4 3 14 18 25 42 44 57 70 75 75 75 77 69 66 66 64 59 56 52 49 44 43 43 40 48 36 45 43 45 48 49 52 52 50 56 45 48 57 70 75 78 72 68 59 50 42 47 63 17 26 9 9 9 346 321 311 314 308 311 300 302 292 286 285 267 275 275 276 270 275 276 280 287 286 298 300 315 324 328 334 333 329
6 11 10 15 21 13 23 32 25 44 63 68 70 72 69 70 67 66 61 57 55 51 49 45 45 41 37 39 30 42 42 39 44 46 58 56 48 55 51 50 57 70 71 55 46 33 83 87 88 69 106 112 86 49 6 332 271 280 281 277 279 262 274 275 272 280 277 274 263 271 282 290 293 292 301 312 317 317 314 316 320 322 326 325 322
12 13 17 19 24 22 25 30 28 22 54 63 65 71 70 68 65 64 60 57 53 49 45 50 44 42 40 33 30 38 35 34 42 43 47 48 47 43 46 38 46 52 60 70 57 24 48 39 43 32 15 31 53 37 295 265 270 253 260 260 244 240 243 236 258 266 280 300 301 291 283 285 307 306 320 319 312 309 319 322 321 318 312 321 315
17 13 20 25 24 27 28 38 28 21 34 60 69 65 63 54 54 55 54 42 41 45 41 46 41 44 33 33 36 39 32 29 29 35 47 44 44 41 39 36 37 52 57 47 37 32 16 40 44 22 18 54 55 18 287 317 283 279 304 300 260 271 247 242 251 270 318 289 281 284 293 319 298 299 296 301 299 303 307 303 297 293 298 301 305
24 14 24 26 25 17 38 43 20 27 57 58 54 53 59 65 59 58 66 48 46 47 49 43 44 41 32 39 41 39 38 37 31 37 43 47 46 41 41 36 32 41 51 46 35 28 9 30 56 30 27 52 32 356 329 287 321 348 342 288 304 247 275 288 342 343 281 278 258 292 317 294 279 298 326 323 309 307 287 279 277 276 274 279 282
6 13 26 22 22 24 41 36 17 44 47 51 76 71 69 72 84 71 76 63 44 43 48 40 37 35 35 35 39 41 43 44 39 43 45 47 53 50 48 50 44 48 55 52 45 35 27 28 11 13 11 42 60 327 313 313 42 12 323 330 326 321 345 45 22 8 307 284 343 302 286 275 295 324 310 290 285 276 273 276 275 275 275 280 280
9 20 12 31 28 29 26 31 33 47 50 61 68 76 69 69 82 84 81 82 61 60 66 57 46 49 44 38 36 37 40 40 36 36 43 35 43 50 45 45 44 42 52 50 40 38 30 27 23 26 5 35 49 11 2 23 351 287 245 278 4 337 358 52 353 333 322 17 316 287 267 280 303 307 303 293 285 286 285 288 285 282 286 283 284
17 20 24 31 31 27 25 32 38 44 51 52 78 82 85 86 79 84 77 74 79 74 74 60 50 45 43 37 40 39 39 45 39 40 44 41 37 40 39 40 41 33 42 49 41 38 28 26 23 27 20 29 17 16 29 0 12 334 5 1 313 346 317 65 349 313 342 301 320 312 343 308 305 292 280 282 292 294 290 291 284 283 282 281 279
20 25 24 33 34 28 24 34 39 43 46 48 57 88 104 92 93 86 85 88 67 58 55 44 39 43 45 35 32 32 39 45 44 44 47 47 42 42 43 41 41 33 36 44 45 39 36 34 26 34 35 35 29 16 18 8 8 15 348 337 342 325 359 322 332 309 16 357 314 360 323 271 306 319 303 291 288 278 281 282 274 275 271 272 268
27 16 23 48 46 37 27 30 44 41 46 52 58 74 68 84 82 70 60 58 55 40 45 46 41 40 46 44 40 33 36 45 45 46 46 45 46 43 43 43 38 35 32 37 34 30 28 27 22 28 32 25 36 40 20 9 33 35 24 17 347 318 319 318 338 319 297 264 260 242 263 287 9 329 315 298 296 290 270 275 267 270 265 262 265
19 359 28 53 59 56 43 37 42 46 47 60 67 83 77 70 72 77 80 72 86 66 59 53 60 57 54 47 44 37 33 38 39 41 44 44 46 42 42 44 43 41 32 36 35 30 27 24 12 25 25 19 25 50 34 3 6 35 8 11 4 321 320 321 326 320 319 352 194 297 297 337 15 349 314 297 289 290 280 267 274 267 267 259 261
8 12 36 45 59 61 61 52 45 49 45 65 70 64 82 81 85 85 80 81 76 87 68 63 56 55 57 47 43 42 38 36 37 38 39 40 41 43 38 40 42 37 33 38 36 25 27 27 29 28 30 31 23 33 32 24 29 4 357 13 3 0 348 247 252 305 301 310 315 182 185 30 341 313 298 293 287 281 288 279 272 271 266 262 255
14 32 35 46 61 67 71 67 57 50 43 58 77 73 80 87 89 93 89 77 83 82 81 67 62 49 61 45 45 42 42 40 39 39 37 38 39 41 37 39 39 35 33 34 31 30 32 28 23 26 27 29 32 21 34 24 17 16 353 8 359 5 338 356 43 90 324 318 301 319 317 305 281 252 277 265 273 270 271 278 277 274 273 269 262
10 33 47 58 66 75 80 76 64 55 53 61 72 77 80 87 87 84 89 91 86 86 76 69 61 50 60 49 42 41 36 38 38 39 39 37 39 39 40 38 36 34 33 31 28 27 25 27 26 29 27 31 26 29 36 22 24 20 25 360 13 350 358 11 22 350 304 229 295 313 316 325 324 317 314 294 287 284 276 271 271 265 268 270 269
37 55 59 58 67 76 83 74 61 63 57 62 69 74 77 75 83 84 86 90 85 86 80 66 61 54 55 48 45 42 39 40 36 38 39 34 38 39 40 39 39 36 32 28 26 21 17 21 22 27 32 29 22 19 25 28 20 20 19 19 14 9 360 340 330 332 322 305 307 299 307 304 298 307 320 315 295 275 272 275 277 274 272 271 274